WZZ2210 LHBP-LOWW

Flight info

Callsign WZZ2210
Flight time 0h 29m
Altitude 11000
Route GILEP2L GILEP DCT NATEX NATEX2W
Aircraft A20N/H-SADE2E3FGHIJ3J4J5M1RWXYZ/LB1D1

Departure

Time 2026-05-05 18:41
Airport Budapest Liszt Ferenc International Airport (LHBP)

Arrival

Time 2026-05-05 19:10
Airport Vienna International Airport (LOWW)
Time Latitude Longitude Altitude Speed Heading
2026-05-05 18:15 47.43357 19.25557 474 ft 0 kts 310°
2026-05-05 18:32 47.43354 19.25564 473 ft 2 kts 308°
2026-05-05 18:32 47.43344 19.25583 475 ft 2 kts 304°
2026-05-05 18:32 47.43336 19.25604 472 ft 2 kts 271°
2026-05-05 18:33 47.43341 19.25624 474 ft 1 kts 223°
2026-05-05 18:33 47.43344 19.25627 478 ft 0 kts 222°
2026-05-05 18:34 47.43343 19.25627 473 ft 1 kts 222°
2026-05-05 18:35 47.43338 19.25619 475 ft 0 kts 222°
2026-05-05 18:35 47.43317 19.25591 478 ft 7 kts 223°
2026-05-05 18:36 47.43299 19.25532 478 ft 7 kts 266°
2026-05-05 18:36 47.43320 19.25467 481 ft 8 kts 310°
2026-05-05 18:36 47.43367 19.25434 476 ft 8 kts 17°
2026-05-05 18:36 47.43423 19.25492 479 ft 11 kts 40°
2026-05-05 18:37 47.43489 19.25582 477 ft 15 kts 41°
2026-05-05 18:37 47.43571 19.25692 482 ft 17 kts 42°
2026-05-05 18:37 47.43660 19.25810 482 ft 18 kts 41°
2026-05-05 18:37 47.43756 19.25937 484 ft 19 kts 42°
2026-05-05 18:38 47.43856 19.26075 491 ft 20 kts 43°
2026-05-05 18:38 47.43965 19.26221 486 ft 21 kts 40°
2026-05-05 18:38 47.43992 19.26257 492 ft 0 kts 42°
2026-05-05 18:39 47.43995 19.26261 493 ft 3 kts 42°
2026-05-05 18:39 47.44032 19.26318 495 ft 11 kts 52°
2026-05-05 18:39 47.44067 19.26448 487 ft 15 kts 92°
2026-05-05 18:40 47.44019 19.26606 484 ft 19 kts 123°
2026-05-05 18:40 47.43927 19.26750 483 ft 21 kts 128°
2026-05-05 18:40 47.43732 19.27060 484 ft 82 kts 132°
2026-05-05 18:40 47.43157 19.27990 507 ft 158 kts 133°
2026-05-05 18:41 47.42332 19.29311 1029 ft 185 kts 133°
2026-05-05 18:41 47.41472 19.30697 2211 ft 181 kts 132°
2026-05-05 18:41 47.40603 19.32073 3249 ft 195 kts 134°
2026-05-05 18:41 47.39596 19.33600 4036 ft 219 kts 135°
2026-05-05 18:42 47.38539 19.35343 4954 ft 237 kts 120°
2026-05-05 18:42 47.37650 19.37495 5873 ft 257 kts 132°
2026-05-05 18:42 47.36141 19.39059 6637 ft 279 kts 158°
2026-05-05 18:42 47.34157 19.39603 6978 ft 315 kts 181°
2026-05-05 18:43 47.31898 19.38885 7088 ft 354 kts 203°
2026-05-05 18:43 47.29728 19.36831 7092 ft 391 kts 222°
2026-05-05 18:43 47.27971 19.33720 7089 ft 389 kts 239°
2026-05-05 18:43 47.26982 19.30175 7089 ft 363 kts 258°
2026-05-05 18:44 47.26816 19.26605 7103 ft 339 kts 272°
2026-05-05 18:44 47.26993 19.23226 7327 ft 323 kts 274°
2026-05-05 18:44 47.26975 19.20005 7978 ft 308 kts 263°
2026-05-05 18:44 47.26469 19.17009 9138 ft 296 kts 250°
2026-05-05 18:45 47.25602 19.14255 10032 ft 300 kts 240°
2026-05-05 18:45 47.24470 19.11660 10681 ft 303 kts 234°
2026-05-05 18:45 47.23190 19.09148 10902 ft 311 kts 232°
2026-05-05 18:45 47.21834 19.06652 10876 ft 311 kts 231°
2026-05-05 18:46 47.20587 19.04107 10773 ft 304 kts 244°
2026-05-05 18:46 47.20037 19.01149 10399 ft 301 kts 268°
2026-05-05 18:46 47.20398 18.98165 10185 ft 299 kts 294°
2026-05-05 18:46 47.21414 18.95471 10101 ft 302 kts 300°
2026-05-05 18:47 47.22476 18.92813 10092 ft 301 kts 300°
2026-05-05 18:47 47.23530 18.90157 10092 ft 301 kts 300°
2026-05-05 18:47 47.24582 18.87489 10086 ft 301 kts 300°
2026-05-05 18:47 47.25627 18.84818 10093 ft 301 kts 300°
2026-05-05 18:48 47.26670 18.82145 10088 ft 301 kts 300°
2026-05-05 18:48 47.27710 18.79472 10090 ft 301 kts 300°
2026-05-05 18:48 47.28752 18.76790 10089 ft 301 kts 300°
2026-05-05 18:48 47.29791 18.74112 10087 ft 301 kts 300°
2026-05-05 18:49 47.30829 18.71433 10089 ft 301 kts 300°
2026-05-05 18:49 47.31869 18.68751 10087 ft 301 kts 300°
2026-05-05 18:49 47.32906 18.66070 10090 ft 301 kts 300°
2026-05-05 18:49 47.33946 18.63382 10087 ft 302 kts 300°
2026-05-05 18:50 47.34983 18.60696 10090 ft 302 kts 300°
2026-05-05 18:50 47.36021 18.58007 10090 ft 301 kts 300°
2026-05-05 18:50 47.37057 18.55321 10091 ft 301 kts 300°
2026-05-05 18:50 47.38094 18.52629 10090 ft 302 kts 300°
2026-05-05 18:51 47.39128 18.49943 10093 ft 301 kts 300°
2026-05-05 18:51 47.40163 18.47252 10087 ft 301 kts 300°
2026-05-05 18:51 47.41197 18.44560 10087 ft 301 kts 300°
2026-05-05 18:51 47.42217 18.41902 10088 ft 302 kts 299°
2026-05-05 18:52 47.43251 18.39204 10090 ft 302 kts 299°
2026-05-05 18:52 47.44286 18.36502 10090 ft 302 kts 299°
2026-05-05 18:52 47.45320 18.33801 10086 ft 302 kts 299°
2026-05-05 18:52 47.46351 18.31104 10088 ft 301 kts 299°
2026-05-05 18:53 47.47381 18.28405 10091 ft 301 kts 299°
2026-05-05 18:53 47.48411 18.25706 10086 ft 301 kts 299°
2026-05-05 18:53 47.49412 18.22981 10090 ft 302 kts 297°
2026-05-05 18:53 47.50373 18.20226 10090 ft 302 kts 297°
2026-05-05 18:54 47.51328 18.17461 10089 ft 302 kts 297°
2026-05-05 18:54 47.52284 18.14704 10086 ft 301 kts 297°
2026-05-05 18:54 47.53244 18.11945 10088 ft 301 kts 297°
2026-05-05 18:54 47.54205 18.09194 10091 ft 301 kts 297°
2026-05-05 18:55 47.55169 18.06437 10089 ft 301 kts 297°
2026-05-05 18:55 47.56133 18.03681 10091 ft 301 kts 297°
2026-05-05 18:55 47.57095 18.00926 10090 ft 301 kts 297°
2026-05-05 18:55 47.58058 17.98167 10086 ft 301 kts 297°
2026-05-05 18:56 47.59018 17.95413 10086 ft 301 kts 297°
2026-05-05 18:56 47.59979 17.92653 10090 ft 301 kts 297°
2026-05-05 18:56 47.60938 17.89895 10093 ft 301 kts 297°
2026-05-05 18:56 47.61897 17.87133 10088 ft 301 kts 297°
2026-05-05 18:57 47.62855 17.84374 10091 ft 301 kts 297°
2026-05-05 18:57 47.63813 17.81609 10091 ft 301 kts 297°
2026-05-05 18:57 47.64770 17.78845 10092 ft 301 kts 297°
2026-05-05 18:57 47.65725 17.76085 10088 ft 301 kts 297°
2026-05-05 18:58 47.66683 17.73314 10086 ft 301 kts 297°
2026-05-05 18:58 47.67637 17.70550 10089 ft 301 kts 297°
2026-05-05 18:58 47.68578 17.67820 10088 ft 301 kts 297°
2026-05-05 18:58 47.69532 17.65053 10086 ft 301 kts 297°
2026-05-05 18:59 47.70498 17.62245 10092 ft 301 kts 297°
2026-05-05 18:59 47.71450 17.59476 10094 ft 301 kts 297°
2026-05-05 18:59 47.72387 17.56745 10090 ft 301 kts 297°
2026-05-05 18:59 47.73351 17.53934 10093 ft 301 kts 297°
2026-05-05 19:00 47.74194 17.51134 10086 ft 301 kts 287°
2026-05-05 19:00 47.74526 17.48075 10087 ft 301 kts 270°
2026-05-05 19:00 47.74352 17.44975 10090 ft 301 kts 263°
2026-05-05 19:00 47.74122 17.41882 10089 ft 301 kts 264°
2026-05-05 19:01 47.73900 17.38787 10088 ft 301 kts 264°
2026-05-05 19:01 47.73681 17.35695 10089 ft 301 kts 264°
2026-05-05 19:01 47.73462 17.32600 10096 ft 301 kts 264°
2026-05-05 19:01 47.73242 17.29506 10088 ft 301 kts 264°
2026-05-05 19:02 47.73021 17.26412 10088 ft 301 kts 264°
2026-05-05 19:02 47.72799 17.23319 10093 ft 301 kts 264°
2026-05-05 19:02 47.72576 17.20228 10088 ft 301 kts 264°
2026-05-05 19:02 47.72352 17.17133 10091 ft 301 kts 264°
2026-05-05 19:03 47.72128 17.14041 10088 ft 301 kts 264°
2026-05-05 19:03 47.71902 17.10947 10089 ft 301 kts 264°
2026-05-05 19:03 47.71810 17.07853 10093 ft 301 kts 278°
2026-05-05 19:03 47.72494 17.04942 10093 ft 301 kts 302°
2026-05-05 19:04 47.73935 17.02713 10090 ft 301 kts 324°
2026-05-05 19:04 47.75667 17.00956 10088 ft 301 kts 327°
2026-05-05 19:04 47.77421 16.99252 10093 ft 301 kts 327°
2026-05-05 19:04 47.79172 16.97543 10088 ft 301 kts 326°
2026-05-05 19:05 47.80917 16.95815 10093 ft 301 kts 326°
2026-05-05 19:05 47.82632 16.94097 10088 ft 301 kts 326°
2026-05-05 19:05 47.84365 16.92349 10088 ft 301 kts 326°
2026-05-05 19:05 47.86099 16.90593 10088 ft 301 kts 326°
2026-05-05 19:06 47.87823 16.88846 10041 ft 298 kts 326°
2026-05-05 19:06 47.89542 16.87101 9603 ft 301 kts 326°
2026-05-05 19:06 47.91305 16.85359 8959 ft 308 kts 331°
2026-05-05 19:06 47.93280 16.84025 8175 ft 316 kts 339°
2026-05-05 19:07 47.95376 16.82882 7336 ft 326 kts 340°
2026-05-05 19:07 47.97548 16.81759 6422 ft 335 kts 341°
2026-05-05 19:07 47.99787 16.80612 5643 ft 347 kts 340°
2026-05-05 19:07 48.02050 16.79004 5282 ft 367 kts 327°
2026-05-05 19:08 48.03970 16.76527 5133 ft 364 kts 312°
2026-05-05 19:08 48.05488 16.73524 5071 ft 356 kts 302°
2026-05-05 19:08 48.06676 16.70367 4725 ft 342 kts 298°
2026-05-05 19:08 48.07786 16.67342 4177 ft 322 kts 298°
2026-05-05 19:09 48.08831 16.64392 2951 ft 320 kts 296°
2026-05-05 19:09 48.09762 16.61345 1531 ft 314 kts 294°
2026-05-05 19:09 48.10578 16.58606 978 ft 264 kts 294°
2026-05-05 19:09 48.11286 16.56327 629 ft 209 kts 296°
2026-05-05 19:10 48.11815 16.54708 612 ft 140 kts 296°
2026-05-05 19:10 48.12062 16.53963 600 ft 29 kts 297°
2026-05-05 19:10 48.12070 16.53939 600 ft 1 kts 297°